Title:  
GGBases > 555 Results Login Signup
#TitleSizeDate
B M E 6 [151127][ensemble]恋する気持ちのかさねかた(恋慕之心的交织方式_共通线)[汉化硬盘版] 5.14G2017-05-27 10:43
B M E 36 Gal Game 汉化硬盘合集 Part 3 50.09G2017-05-01 01:45
B M E 26 [AVG][160422][eye★phon]つい・ゆり ~おかあさんにはナイショだよ~/双生百合~要对妈妈保密哦~ 汉化版[Chinese] 602.1M2017-04-30 17:46
B M E 22 [AVG][160527][Innocent Grey]FLOWERS -Le volume sur automne-(秋篇) 汉化版[Chinese] 2.62G2017-04-30 08:26
B M E 26 Gal Game 汉化硬盘合集 Part 2 50.05G2017-04-29 04:29
B M E 25 Gal Game 汉化硬盘合集 Part1 50.09G2017-04-28 03:02
B M E 17 [170324][ensemble]想いを捧げる乙女のメロディー(有少女献鸣的爱之奏章_沙耶香线)[汉化硬盘版] 3.01G2017-04-20 11:51
B M E 17 [AVG][151218][PULLTOP]見上げてごらん、夜空の星/抬头看看吧,看那天上的繁星 繁中汉化版[T_Chinese] 6.18G2017-04-17 15:56
B M E 5 [AVG][101015][feng]星空へ架かる橋/架向星空之桥 汉化版[Chinese] 3.76G2017-04-16 13:54
B M E 14 [170224][Recette]糖调!\しゅがてん!-sugarfull tempering- [汉化硬盘版] 1.18G2017-04-12 08:11
B M E 31 [PSP][萝莉痴女/萝莉ちじょ][中文汉化版] 237M2017-04-07 13:23
B M E 23 [AVG][070601][ゆずソフト]Empty × Embryo(E×E/エグゼ)汉化版[Chinese] 2.91G2017-04-06 05:21
B M E 26 [161222][あかべぇそふとすりぃ]竜騎士Bloody†Saga [汉化硬盘版(共通线)] 3.34G2017-04-05 04:54
B M E 5 [AVG][170324][ウグイスカグラ]水葬銀貨のイストリア/水葬银货的Istria 序章汉化测试版[Chinese] 2.82G2017-04-04 13:01
B M E 49 【黙示游戏中文化兴趣小组】[ACT] [160826] [戯画] BALDR HEART -バルドハート- [汉化硬盘版](附修正补丁) 5.93G2017-04-02 16:53
B M E 20 [ACT] [160826] [戯画] BALDR HEART -バルドハート- [汉化硬盘版](附修正补丁) 5.93G2017-04-01 16:49
B M E 14 [AVG][110527][Moviendo]処女回路 汉化版[Chinese] 548.8M2017-03-30 10:48
B M E 13 [AVG][121130][Iris]ないしょのないしょ!/秘密的秘密 汉化版[Chinese] 1.98G2017-03-28 14:14
B M E 15 [AVG][110814][NANACAN]妹調教日記 本体 + FD 汉化版[Chinese] 2.66G2017-03-25 10:10
B M E 44 [ACT] [160826] [戯画] BALDR HEART -バルドハート- [汉化硬盘版] 5.94G2017-03-25 08:06
B M E 13 [160826][戯画] BALDR HEART -バルドハート- [汉化硬盘版] 5.94G2017-03-25 04:56
B M E 21 [AVG][120330][ゆずソフト]DRACU-RIOT! 汉化版[Chinese] 3.45G2017-03-23 14:10
B M E 1 [AVG][051125][AKABEiSOFT2]車輪の国、向日葵の少女 + 悠久の少年少女 汉化版[Chinese] 2.55G2017-03-22 11:12
B M E 42 [AVG][120622][Empress]LEWDNESS~Vita sexualis~汉化版[Chinese] 2.71G2017-03-21 16:41
B M E 49 [SLG][120427][Dual Tail]VenusBlood-FRONTIER-汉化版[Chinese] 2.7G2017-03-19 10:49
B M E 12 [AVG][121026][Navel]月に寄りそう乙女の作法/近月少女的礼仪 汉化版[Chinese] 5.41G2017-03-17 16:10
B M E 23 [AVG][141031][Navel]月に寄りそう乙女の作法2/近月少女的礼仪2 汉化版[Chinese] 5.74G2017-03-16 16:18
B M E 15 [AVG][130531][CIRCUS]D.C.III.R_X 汉化版[Chinese] 3.51G2017-03-16 13:25
B M E 86 [AVG][091218][Alicesoft]校内赤線区域 原版+機能追加版 汉化版[Chinese] 1.67G2017-03-16 05:24
B M E 34 [SLG][100129][XUSE]聖なるかな・外伝 精霊天翔~壊れゆく世界の少女たち~/精灵天翔.迈向毁灭世界的少女们 汉化版[Chinese] 1.64G2017-03-14 15:33
B M E 29 [AVG][141128][CYCLET]駄作 汉化版[Chinese] 1.5G2017-03-13 17:03
B M E 21 [AVG][150123][BaseSon]きみはね 彼女と彼女の恋する1ヶ月/君羽 她与她相恋的一个月 汉化版[Chinese] 535.2M2017-03-13 11:06
B M E 6 [AVG][101125][Key]Little Busters Ex 汉化版[Chinese] 3.45G2017-03-11 16:05
B M E 13 [AVG][110224][enterbrain]圣诞之吻:小小惊喜剧场 汉化版[Chinese] 486.4M2017-03-11 06:00
B M E 6 [AVG][100625][Key]kud wafter 汉化版[Chinese] 2.24G2017-03-10 18:19
B M E 12 [130628][onomatope*]ずっとすきして たくさんすきして\挚爱随行_倾慕相伴 [汉化硬盘版] 2.76G2017-03-09 15:02
B M E 42 [AVG][140530]妹寝取り~身も心もお兄ちゃんのモノ~/妹妹寝取~身心都是哥哥的所有物~ 汉化版[Chinese] 735.2M2017-03-09 14:29
B M E 8 [170224][Recette]しゅがてん!\糖调!-sugarfull tempering- [汉化硬盘版(共通线)] 1.18G2017-03-05 11:33
B M E 13 [AVG][161125][SWEET&TEA]枯れない世界と終わる花/永不枯萎的世界与终结之花 汉化版[Chinese] 4.52G2017-03-03 16:17
B M E 16 [AVG][160325][あっぷりけ]時を紡ぐ約束/编织时间的约定 汉化版[Chinese] 3.81G2017-03-02 04:57
B M E 12 [AVG][120224][Sugar pot]ツクモノツキ/九十九之月 汉化版[Chinese] 1.1G2017-02-25 11:22
B M E 10 [AVG][140328][NanaWind]ALIA's_CARNIVAL 共通线汉化版V1.03b[Chinese] 2.69G2017-02-20 14:34
B M E 14 [AVG][140725][FAVORITE]アストラエアの白き永遠/星辰恋曲的白色永恒v2.0 汉化版[Chinese] 5.77G2017-02-19 09:28
B M E 12 [AVG][170127][FAVORITE]アストラエアの白き永遠 Finale -白き星の夢-/星辰恋曲的白色永恒-Finale- V1.1 汉化版[Chinese] 4.83G2017-02-17 18:45
B M E 28 [AVG][031024][HERMIT]FOLKLORE JAM 汉化版[Chinese] 705.5M2017-02-14 14:37
B M E 22 [RPG][120224][Studio e.go!]IZUMO2 汉化版[Chinese] 1.45G2017-02-12 13:54
B M E 18 [RPG][011221][Studio e.go!]IZUMO 汉化版[Chinese] 1.06G2017-02-12 13:53
B M E 9 [RPG][040730][Studio e.go!]IZUMO2 汉化版[Chinese] 1.1G2017-02-12 13:53
B M E 12 [AVG][120727][Latte]第2回妹選抜☆総選挙/第二回妹选拔总选举 汉化版[Chinese] 832.1M2017-02-11 05:59
B M E 33 [AVG][20100326][Leaf]WHITE ALBUM2 /白色相簿 2 汉化版[Chinese] 6.45G2017-02-10 04:53